Retour au catalogue

SL-8 DEB

ActifLEO
NORAD 21401·DEBRIS·🇷🇺 Russia

Lancé Feb 12, 1991 depuis Plesetsk Cosmodrome

Loading…

Prochains Passages (prochaines 24 heures)

TLE

FraisSource: Space-Track

Époque: Sep 14, 2026, 00:42 UTC

1 21401U 91009BQ  26257.02932303  .00000050  00000-0  61726-3 0  9991
2 21401  74.1315 274.4365 0141512 158.9873 233.4801 12.17005343577508

Suivez SL-8 DEB en temps réel avec AllMySat

Download on the App Store